Tracking 28799 objects as of 18-Apr-2024
HD Live streaming from Space Station
objects crossing your sky now

STARLINK-4017

Track STARLINK-4017 now!
10-day predictions
STARLINK-4017 is classified as:


NORAD ID: 52682
Int'l Code: 2022-053AC
Perigee: 545.8 km
Apogee: 548.1 km
Inclination: 53.2 °
Period: 95.4 minutes
Semi major axis: 6917 km
RCS: Unknown
Launch date: May 18, 2022
Source: United States (US)
Launch site: AIR FORCE EASTERN TEST RANGE (AFETR)
Your satellite tracking list
Your tracking list is empty




NASA's NSSDC Master Catalog

Two Line Element Set (TLE):
1 52682U 22053AC  24108.93700976 -.00001211  00000-0 -58034-4 0  9992
2 52682  53.2184   5.0297 0001656  70.3891 289.7279 15.08824629106463
Source of the keplerian elements: AFSPC